Home   Weather   Wellington   Past weeks
Flag for New Zealand

Past Weather in Wellington, New Zealand — Yesterday and Last 2 Weeks

Now
52 °F

Passing clouds.


Feels Like: 51 °F
Forecast: 55 / 48 °F
Wind: 5 mph from Northeast

Location: Wellington Airport

Current Time: Jul 21, 2019 at 7:38:42 pm

Latest Report: Jul 21, 2019 at 7:00 pm


Visibility: N/A

Pressure: 29.80 "Hg

Humidity: 88%

Dew Point: 48 °F

Location of WellingtonLocation

Past Weather in Wellington — Graph

°F

Wellington Temperature Yesterday

Maximum temperature yesterday: 54 °F (at 12:00 am)
Minimum temperature yesterday: 50 °F (at 7:30 am)
Average temperature yesterday: 51 °F

High & Low Weather Summary for the Past Weeks

 TemperatureHumidityPressure
High61 °F (Jul 19, 12:30 pm)100% (Jul 14, 8:30 am)30.36 "Hg (Jul 14, 8:30 am)
Low41 °F (Jul 7, 4:00 am)41% (Jul 15, 12:00 pm)29.09 "Hg (Jul 17, 4:30 am)
Average53 °F78%29.64 "Hg
* Reported Jul 6 6:00 pm — Jul 21 6:30 pm, Wellington. Weather by CustomWeather, © 2019

Note: Actual official high and low records may vary slightly from our data, if they occured in-between our weather recording intervals... More about our weather records

Advertising

Wellington Weather History for the Previous 24 Hours

Scroll right to see more
 ConditionsComfort  
Time TempWeatherWind HumidityBarometerVisibility
6:30 pm
Sun, Jul 21
52 °FOvercast.3 mph88%29.77 "HgN/A
6:00 pm52 °FPassing clouds.8 mph88%29.74 "Hg4 mi
5:30 pm54 °FMostly cloudy.6 mph77%29.74 "HgN/A
5:00 pm54 °FMore clouds than sun.7 mph77%29.74 "HgN/A
4:30 pm54 °FMostly cloudy.9 mph77%29.71 "HgN/A
4:00 pm54 °FPartly sunny.9 mph77%29.71 "HgN/A
3:30 pm54 °FMostly cloudy.8 mph82%29.68 "HgN/A
3:00 pm54 °FScattered showers. Partly sunny.13 mph82%29.68 "HgN/A
2:30 pm54 °FMostly cloudy.8 mph88%29.68 "HgN/A
2:00 pm54 °FLight rain. Partly sunny.10 mph88%29.65 "HgN/A
1:30 pm54 °FLight rain. Partly sunny.9 mph88%29.65 "HgN/A
1:00 pm54 °FLight rain. Cloudy.9 mph88%29.65 "Hg3 mi
12:30 pm54 °FBroken clouds.8 mph88%29.65 "HgN/A
12:00 pm54 °FBroken clouds.13 mph88%29.65 "HgN/A
11:30 am55 °FBroken clouds.9 mph82%29.65 "HgN/A
11:00 am54 °FBroken clouds.7 mph82%29.65 "HgN/A
10:30 am54 °FPartly sunny.6 mph88%29.65 "HgN/A
10:00 am52 °FPartly sunny.7 mph88%29.62 "HgN/A
9:30 am52 °FBroken clouds.7 mph94%29.62 "HgN/A
9:00 am50 °FBroken clouds.6 mph94%29.59 "HgN/A
8:30 am50 °FPartly sunny.2 mph88%29.59 "HgN/A
8:00 am48 °FPartly sunny.5 mph94%29.56 "HgN/A
7:30 am50 °FPassing clouds.5 mph88%29.56 "HgN/A
7:00 am50 °FPartly cloudy.5 mph88%29.56 "HgN/A
6:30 am50 °FPassing clouds.7 mph88%29.53 "HgN/A
6:00 am50 °FPassing clouds.7 mph88%29.50 "HgN/A
5:30 am50 °FOvercast.6 mph94%29.50 "HgN/A
5:00 am48 °FPartly cloudy.5 mph94%29.50 "HgN/A
4:30 am48 °FPassing clouds.6 mph94%29.50 "HgN/A
4:00 am50 °FScattered showers. Mostly cloudy.3 mph94%29.50 "HgN/A
3:30 am50 °FScattered showers. Mostly cloudy.2 mph94%29.50 "HgN/A
3:00 am48 °FScattered showers. Passing clouds.3 mph100%29.50 "HgN/A
2:30 am50 °FDrizzle. Mostly cloudy.3 mph94%29.50 "HgN/A
2:00 am50 °FPartly cloudy.5 mph94%29.47 "HgN/A
1:30 am50 °FScattered showers. Partly cloudy.3 mph94%29.47 "HgN/A
1:00 am50 °FPassing clouds.1 mph94%29.47 "HgN/A
12:30 am50 °FDrizzle. Low clouds.2 mph94%29.47 "HgN/A
12:00 am50 °FLight rain. Mostly cloudy.1 mph94%29.50 "HgN/A
11:30 pm
Sat, Jul 20
50 °FLight rain. Mostly cloudy.3 mph94%29.50 "HgN/A
11:00 pm50 °FLight rain. Mostly cloudy.6 mph94%29.50 "HgN/A
10:30 pm50 °FLight rain. Mostly cloudy.6 mph94%29.50 "HgN/A
10:00 pm50 °FLight rain. Passing clouds.5 mph94%29.50 "HgN/A
9:30 pm50 °FDrizzle. Mostly cloudy.3 mph94%29.50 "HgN/A
9:00 pm50 °FLight rain. Mostly cloudy.6 mph94%29.50 "HgN/A
8:30 pm50 °FLight rain. Overcast.7 mph94%29.50 "HgN/A
8:00 pm50 °FLight rain. Mostly cloudy.7 mph94%29.50 "HgN/A
7:30 pm50 °FLight rain. Low clouds.3 mph94%29.50 "Hg5 mi
7:00 pm50 °FLight rain. Mostly cloudy.13 mph94%29.50 "HgN/A
Weather by CustomWeather, © 2019

See weather overview